Location: Breungeshain
(50.5000°N, 9.2000°E)
Time: 11:57:43
(UTC+00:00)

ISS - Pass Details

Date: 19 May 2018
Orbit: 402 x 407 km, 51.6° (Epoch: 26 May)

Event Time Altitude Azimuth Distance (km) Brightness Sun altitude
Exits shadow 23:38:46 26° 273° (W) 829 -2.3 -19.5°
Maximum altitude 23:40:25 73° 354° (N) 426 -3.7 -19.4°
Drops below altitude 10° 23:43:42 10° 80° (E) 1,459 -0.8 -19.4°
Sets 23:45:47 0° 82° (E) 2,319 0.2 -19.3°
